| time (UTC) | temp F | wind direction | speed MPH | gust MPH | rain 1hr in | rain 24hr in | rain mn in | humidity % | barometer mb |
| 20260505054552 | 56 | 226 | 5.0 | 10.0 | 0.00 | 0.00 | 0.00 | 65 | 1009.9 |
| 20260505053051 | 56 | 260 | 6.0 | 12.0 | 0.00 | 0.00 | 0.00 | 65 | 1009.8 |
| 20260505051606 | 57 | 241 | 4.0 | 13.0 | 0.00 | 0.00 | 0.00 | 64 | 1009.9 |
| 20260505041545 | 57 | 257 | 9.0 | 14.0 | 0.00 | 0.00 | 0.00 | 61 | 1010.1 |
| 20260505040052 | 58 | 246 | 8.0 | 14.0 | 0.00 | 0.00 | 0.00 | 60 | 1009.9 |
| 20260505034546 | 58 | 257 | 8.0 | 15.0 | 0.00 | 0.00 | 0.00 | 59 | 1010.0 |
| 20260505033048 | 58 | 242 | 8.0 | 19.0 | 0.00 | 0.00 | 0.00 | 57 | 1009.9 |
| 20260505031553 | 59 | 232 | 7.0 | 17.0 | 0.00 | 0.00 | 0.00 | 56 | 1010.0 |
| 20260505030048 | 59 | 245 | 10.0 | 17.0 | 0.00 | 0.00 | 0.00 | 55 | 1009.9 |
| 20260505024557 | 59 | 229 | 6.0 | 17.0 | 0.00 | 0.00 | 0.00 | 54 | 1009.9 |
| 20260505023053 | 60 | 240 | 10.0 | 19.0 | 0.00 | 0.00 | 0.00 | 53 | 1009.9 |
| 20260505021547 | 60 | 216 | 9.0 | 14.0 | 0.00 | 0.00 | 0.00 | 53 | 1009.9 |
| 20260505020048 | 60 | 205 | 4.0 | 14.0 | 0.00 | 0.00 | 0.00 | 53 | 1009.9 |
| 20260505014548 | 61 | 231 | 11.0 | 16.0 | 0.00 | 0.00 | 0.00 | 51 | 1009.8 |
| 20260505013100 | 61 | 243 | 9.0 | 17.0 | 0.00 | 0.00 | 0.00 | 50 | 1009.6 |
| 20260505011543 | 61 | 255 | 11.0 | 18.0 | 0.00 | 0.00 | 0.00 | 50 | 1009.3 |
| 20260505004549 | 61 | 283 | 9.0 | 19.0 | 0.00 | 0.00 | 0.00 | 52 | 1008.7 |
| 20260505003046 | 61 | 224 | 10.0 | 18.0 | 0.00 | 0.00 | 0.00 | 52 | 1008.5 |
| 20260505001549 | 62 | 246 | 9.0 | 21.0 | 0.00 | 0.00 | 0.00 | 51 | 1008.1 |
| 20260505000058 | 63 | 241 | 7.0 | 15.0 | 0.00 | 0.00 | 0.00 | 51 | 1007.5 |
| 20260504234543 | 65 | 170 | 7.0 | 22.0 | 0.00 | 0.00 | 0.00 | 46 | 1007.3 |
| 20260504233043 | 66 | 263 | 8.0 | 21.0 | 0.00 | 0.00 | 0.00 | 44 | 1007.1 |
| 20260504231546 | 67 | 230 | 13.0 | 22.0 | 0.00 | 0.00 | 0.00 | 42 | 1006.8 |
| 20260504230056 | 69 | 260 | 12.0 | 25.0 | 0.00 | 0.00 | 0.00 | 38 | 1006.3 |
| 20260504224546 | 71 | 231 | 9.0 | 18.0 | 0.00 | 0.00 | 0.00 | 33 | 1006.0 |
| 20260504223055 | 71 | 251 | 8.0 | 18.0 | 0.00 | 0.00 | 0.00 | 32 | 1006.0 |
| 20260504221550 | 71 | 262 | 9.0 | 17.0 | 0.00 | 0.00 | 0.00 | 32 | 1006.0 |
| 20260504220053 | 71 | 226 | 13.0 | 22.0 | 0.00 | 0.00 | 0.00 | 32 | 1006.0 |
| 20260504214552 | 72 | 204 | 9.0 | 15.0 | 0.00 | 0.00 | 0.00 | 31 | 1006.0 |
| 20260504213057 | 71 | 290 | 13.0 | 19.0 | 0.00 | 0.00 | 0.00 | 31 | 1005.9 |
| 20260504211552 | 71 | 217 | 11.0 | 20.0 | 0.00 | 0.00 | 0.00 | 31 | 1005.9 |
| 20260504210047 | 71 | 300 | 8.0 | 24.0 | 0.00 | 0.00 | 0.00 | 32 | 1006.0 |
| 20260504204543 | 71 | 254 | 14.0 | 27.0 | 0.00 | 0.00 | 0.00 | 29 | 1006.1 |
| 20260504203042 | 71 | 258 | 12.0 | 25.0 | 0.00 | 0.00 | 0.00 | 30 | 1005.9 |
| 20260504201603 | 71 | 220 | 11.0 | 21.0 | 0.00 | 0.00 | 0.00 | 30 | 1006.2 |
| 20260504200047 | 71 | 271 | 6.0 | 17.0 | 0.00 | 0.00 | 0.00 | 30 | 1006.1 |
| 20260504194553 | 71 | 297 | 9.0 | 20.0 | 0.00 | 0.00 | 0.00 | 29 | 1006.1 |
| 20260504193050 | 71 | 326 | 9.0 | 29.0 | 0.00 | 0.00 | 0.00 | 31 | 1006.1 |
| 20260504191557 | 70 | 321 | 15.0 | 25.0 | 0.00 | 0.00 | 0.00 | 30 | 1006.2 |
| 20260504190110 | 71 | 210 | 9.0 | 20.0 | 0.00 | 0.00 | 0.00 | 30 | 1006.4 |
| 20260504184611 | 70 | 214 | 14.0 | 25.0 | 0.00 | 0.00 | 0.00 | 31 | 1006.6 |
| 20260504183048 | 69 | 290 | 10.0 | 27.0 | 0.00 | 0.00 | 0.00 | 31 | 1006.5 |
| 20260504181551 | 70 | 302 | 10.0 | 25.0 | 0.00 | 0.00 | 0.00 | 32 | 1006.6 |
| 20260504180052 | 68 | 239 | 15.0 | 30.0 | 0.00 | 0.00 | 0.00 | 31 | 1006.9 |
| 20260504174550 | 68 | 252 | 15.0 | 26.0 | 0.00 | 0.00 | 0.00 | 31 | 1006.8 |
| 20260504173046 | 68 | 200 | 14.0 | 27.0 | 0.00 | 0.00 | 0.00 | 32 | 1007.0 |
| 20260504171554 | 67 | 278 | 16.0 | 26.0 | 0.00 | 0.00 | 0.00 | 33 | 1006.9 |
| 20260504140105 | 61 | 306 | 8.0 | 19.0 | 0.00 | 0.06 | 0.00 | 41 | 1008.9 |
| 20260504081547 | 48 | 231 | 3.0 | 6.0 | 0.00 | 0.06 | 0.00 | 54 | 1009.9 |